#timestamp,LO_Frequency,Hit,StdDev 
1570060815.3,286047000.9,N
1570060835.1,286046998.9,N
1570060855.9,286046998.7,N
1570060875.7,286046999.0,N
1570060895.5,286046998.9,N
1570060915.4,286047000.4,N
1570060935.2,286047000.7,N
1570060955.1,286046998.1,N
1570060956.0,286046998.1,N
1570060975.8,286046999.1,N
1570060995.6,286046998.7,N
1570061015.5,286046998.2,N
1570061035.3,286047000.3,N
1570061055.1,286046998.3,N
1570061075.9,286046996.5,N
1570061095.7,286046997.0,N
1570061115.6,286046999.6,N
1570061135.4,286047000.8,N
1570061155.2,286047001.0,N
1570061175.1,286047000.9,N
1570061176.0,286047000.9,N
1570061195.8,286046998.7,N
1570061215.7,286047001.1,N
1570061235.5,286047000.5,N
1570061255.5,286046998.1,N
1570061275.4,286046998.5,N
1570061295.2,286046999.0,N
1570061315.0,286046998.7,N
1570061315.9,286046998.7,N
1570061335.8,286046998.9,N
1570061355.6,286046999.4,N
1570061375.5,286046998.3,N
1570061395.3,286047000.6,N
1570061415.1,286047001.1,N
1570061435.9,286047001.2,N
1570061455.7,286047000.8,N
1570061475.6,286046998.4,N
1570061495.4,286046999.9,N
1570061515.2,286047001.0,N
1570061535.1,286046999.9,N
1570061536.0,286046999.9,N
1570061555.8,286046998.6,N
1570061575.7,286046999.5,N
1570061595.5,286046998.8,N
1570061615.3,286046998.1,N
1570061635.2,286046999.8,N
1570061655.0,286047002.7,N
1570061655.9,286047002.7,N
1570061675.8,286046999.7,N
1570061695.6,286046998.8,N
1570061715.4,286046999.0,N
1570061735.3,286047002.8,N
1570061755.1,286047001.5,N
1570061775.8,286047004.2,Y
1570061795.7,286047003.2,P
1570061815.5,286047003.6,N
1570061835.4,286047002.8,N
1570061855.2,286047002.3,N
1570061875.0,286047002.2,N
1570061875.9,286047002.2,N
1570061895.8,286047000.3,N
1570061915.6,286046999.8,N
1570061935.5,286047002.8,N
1570061955.3,286046998.1,N
1570061975.1,286047000.0,N
1570061995.9,286047001.1,N
1570062015.7,286046998.6,N
1570062035.5,286046999.7,N
1570062055.4,286047002.5,N
1570062075.2,286047001.6,N
1570062095.1,286047001.8,N
1570062096.0,286047001.8,N
1570062115.8,286047002.0,N
1570062135.6,286046999.7,N
1570062155.5,286047001.6,N
1570062175.3,286047001.9,N
1570062195.2,286047002.2,N
1570062215.9,286046999.7,N
1570062235.7,286046999.7,N
1570062255.6,286046999.9,N
1570062275.4,286046999.9,N
1570062295.2,286046998.7,N
1570062315.1,286047001.0,N
1570062316.0,286047001.0,N
1570062335.8,286047002.4,N
1570062355.7,286047002.2,N
1570062375.5,286047000.3,N
1570062395.3,286047002.0,N
1570062415.2,286047004.8,Y
1570062435.0,286047004.6,P
1570062435.9,286047004.6,N
1570062455.8,286047007.0,P
1570062475.6,286047003.3,N
1570062495.4,286047001.4,N
1570062515.3,286047001.8,N
1570062535.1,286047001.5,N
1570062555.9,286047002.1,N
1570062575.7,286047002.9,N
1570062595.5,286047005.7,Y
1570062615.4,286047001.6,P
1570062635.2,286047003.9,P
1570062655.1,286047004.2,P
1570062656.0,286047004.2,Y
1570062675.8,286047002.6,P
1570062695.6,286047000.6,N
1570062715.5,286047000.3,N
1570062735.3,286047000.0,N
1570062755.1,286047000.8,N
1570062775.9,286047000.6,N
1570062795.7,286047000.7,N
1570062815.6,286047000.9,N
1570062835.4,286047001.1,N
1570062855.2,286047001.2,N
1570062875.1,286046998.9,N
1570062876.0,286046998.9,N
1570062895.8,286047000.5,N
1570062915.7,286047000.7,N
1570062935.5,286046998.4,N
1570062955.3,286046998.2,N
1570062975.2,286046999.9,N
1570062995.0,286046998.2,N
1570062995.9,286046998.2,N
1570063015.8,286047000.7,N
1570063035.6,286046998.5,N
1570063055.4,286047000.8,N
1570063075.3,286047000.8,N
1570063095.1,286047000.6,N
1570063115.8,286047000.4,N
1570063135.7,286047000.3,N
1570063155.5,286047001.2,N
1570063175.4,286046999.6,N
1570063195.2,286046996.6,N
1570063215.0,286046997.0,N
1570063215.9,286046997.0,N
1570063235.8,286046997.2,N
1570063255.6,286046998.0,N
1570063275.4,286046997.5,N
1570063295.3,286046997.5,N
1570063315.1,286046993.9,Y
1570063335.9,286046993.6,P
1570063355.7,286046994.3,N
1570063375.5,286046993.8,N
1570063395.4,286046993.5,N
1570063415.2,286046991.7,Y
1570063435.1,286046998.4,P
1570063436.0,286046998.4,N
1570063455.8,286046999.6,N
1570063475.6,286046997.3,N
1570063495.5,286046997.3,N
1570063515.3,286046997.0,N
1570063535.2,286046997.6,N
1570063555.0,286046995.9,Y
1570063555.9,286046995.9,P
1570063575.8,286046997.0,P
1570063595.6,286046997.2,P
1570063615.4,286046997.3,Y
1570063635.3,286046999.7,P
1570063655.1,286047000.0,N
1570063675.8,286047002.0,N
1570063695.7,286046999.7,N
1570063715.5,286047000.3,N
1570063735.4,286047002.3,N
1570063755.2,286047001.6,N
1570063775.1,286047002.8,N
1570063795.9,286047002.6,N
1570063815.7,286047004.3,N
1570063835.5,286047005.8,N
1570063855.4,286047004.4,N
1570063875.2,286047005.5,N
1570063895.0,286047002.9,N
1570063895.9,286047002.9,N
1570063915.8,286047005.7,N
1570063935.6,286047003.5,N
1570063955.5,286047001.5,N
1570063975.3,286047002.5,N
1570063995.1,286047000.2,N
1570064015.9,286046999.9,N
1570064035.7,286047002.7,N
1570064055.5,286047001.3,N
1570064075.4,286047001.8,N
1570064095.2,286047000.1,N
1570064115.1,286047001.3,N
1570064116.0,286047001.3,N
1570064135.8,286047005.5,N
1570064155.6,286047005.3,N
1570064175.5,286047002.9,N
1570064195.3,286047004.1,N
1570064215.2,286047002.2,N
1570064235.9,286047002.3,N
1570064255.7,286047002.1,N
1570064275.6,286047001.9,N
1570064295.4,286047002.8,N
1570064315.2,286047002.8,N
1570064335.1,286047002.1,N
1570064336.0,286047002.1,N
1570064355.8,286047004.0,N
1570064375.7,286047004.3,N
1570064395.5,286047003.3,N
